TimeCEST,TemperatureF,Dew PointF,Humidity,Sea Level PressureIn,VisibilityMPH,Wind Direction,Wind SpeedMPH,Gust SpeedMPH,PrecipitationIn,Events,Conditions,WindDirDegrees,DateUTC
12:00 AM,75.2,68.0,78,30.12,6.2,Variable,1.2,-,N/A,,Mostly Cloudy,0,2013-07-03 22:00:00
12:30 AM,75.2,68.0,78,30.12,6.2,South,1.2,-,N/A,,Mostly Cloudy,190,2013-07-03 22:30:00
1:00 AM,75.2,68.0,78,30.12,6.2,Calm,Calm,-,N/A,,Mostly Cloudy,0,2013-07-03 23:00:00
1:30 AM,75.2,68.0,78,30.12,6.2,Calm,Calm,-,N/A,,Mostly Cloudy,0,2013-07-03 23:30:00
2:00 AM,75.2,68.0,78,30.09,6.2,ENE,1.2,-,N/A,,Mostly Cloudy,70,2013-07-04 00:00:00
2:30 AM,73.4,68.0,83,30.09,6.2,East,1.2,-,N/A,,Mostly Cloudy,80,2013-07-04 00:30:00
3:00 AM,73.4,68.0,83,30.09,6.2,Calm,Calm,-,N/A,,Scattered Clouds,0,2013-07-04 01:00:00
3:30 AM,71.6,66.2,83,30.09,6.2,ESE,1.2,-,N/A,,Scattered Clouds,110,2013-07-04 01:30:00
4:00 AM,69.8,66.2,88,30.09,6.2,Calm,Calm,-,N/A,,Partly Cloudy,0,2013-07-04 02:00:00
4:30 AM,69.8,66.2,88,30.09,6.2,Calm,Calm,-,N/A,,Partly Cloudy,0,2013-07-04 02:30:00
5:00 AM,69.8,66.2,88,30.09,6.2,ENE,2.3,-,N/A,,Partly Cloudy,70,2013-07-04 03:00:00
5:30 AM,68.0,64.4,88,30.09,6.2,Variable,1.2,-,N/A,,Partly Cloudy,0,2013-07-04 03:30:00
6:00 AM,68.0,64.4,88,30.09,6.2,ENE,2.3,-,N/A,,Partly Cloudy,60,2013-07-04 04:00:00
6:30 AM,68.0,64.4,88,30.09,6.2,ENE,2.3,-,N/A,,Partly Cloudy,70,2013-07-04 04:30:00
7:00 AM,68.0,64.4,88,30.09,6.2,ENE,5.8,-,N/A,,Partly Cloudy,70,2013-07-04 05:00:00
7:30 AM,69.8,66.2,88,30.09,6.2,Variable,2.3,-,N/A,,Partly Cloudy,0,2013-07-04 05:30:00
8:00 AM,74,63,61,30.12,19,Calm,Calm,,,,Scattered Clouds,,2013-07-04 06:00:00
8:00 AM,75.2,64.4,69,30.09,6.2,Calm,Calm,-,N/A,,Partly Cloudy,0,2013-07-04 06:00:00
8:30 AM,77.0,64.4,65,30.12,6.2,Calm,Calm,-,N/A,,Partly Cloudy,0,2013-07-04 06:30:00
9:00 AM,78.8,62.6,57,30.09,6.2,Variable,2.3,-,N/A,,Partly Cloudy,0,2013-07-04 07:00:00
9:30 AM,80.6,62.6,54,30.12,6.2,ENE,1.2,-,N/A,,Partly Cloudy,60,2013-07-04 07:30:00
10:00 AM,82.4,62.6,51,30.12,6.2,SSE,2.3,13.8,N/A,,Partly Cloudy,150,2013-07-04 08:00:00
10:30 AM,82.4,62.6,51,30.12,6.2,SSW,2.3,-,N/A,,Partly Cloudy,210,2013-07-04 08:30:00
11:00 AM,82.4,62.6,51,30.12,6.2,WSW,12.7,-,N/A,,Scattered Clouds,240,2013-07-04 09:00:00
11:30 AM,80.6,64.4,58,30.12,6.2,SW,12.7,-,N/A,,Scattered Clouds,230,2013-07-04 09:30:00
12:00 PM,80.6,66.2,61,30.15,6.2,SW,13.8,-,N/A,,Scattered Clouds,230,2013-07-04 10:00:00
12:30 PM,80.6,66.2,61,30.15,6.2,SW,13.8,-,N/A,,Mostly Cloudy,230,2013-07-04 10:30:00
1:00 PM,78.8,64.4,61,30.15,6.2,SW,15.0,-,N/A,,Mostly Cloudy,230,2013-07-04 11:00:00
1:30 PM,80.6,66.2,61,30.15,6.2,SW,15.0,-,N/A,,Mostly Cloudy,230,2013-07-04 11:30:00
2:00 PM,80,66,54,30.17,19,SSW,15.0,,,,Partly Cloudy,210,2013-07-04 12:00:00
2:00 PM,80.6,68.0,65,30.15,6.2,SW,15.0,-,N/A,,Mostly Cloudy,230,2013-07-04 12:00:00
2:30 PM,80.6,68.0,65,30.15,6.2,SW,15.0,-,N/A,,Scattered Clouds,230,2013-07-04 12:30:00
3:00 PM,80.6,66.2,61,30.15,6.2,SW,15.0,-,N/A,,Scattered Clouds,230,2013-07-04 13:00:00
3:30 PM,80.6,68.0,65,30.15,6.2,SSW,12.7,-,N/A,,Scattered Clouds,210,2013-07-04 13:30:00
4:00 PM,80.6,68.0,65,30.12,6.2,SW,13.8,-,N/A,,Scattered Clouds,230,2013-07-04 14:00:00
4:30 PM,80.6,68.0,65,30.12,6.2,SW,13.8,-,N/A,,Scattered Clouds,220,2013-07-04 14:30:00
5:00 PM,80.6,66.2,61,30.12,6.2,SW,13.8,-,N/A,,Scattered Clouds,220,2013-07-04 15:00:00
5:30 PM,80.6,66.2,61,30.12,6.2,SW,13.8,-,N/A,,Scattered Clouds,230,2013-07-04 15:30:00
6:00 PM,80.6,68.0,65,30.12,6.2,SW,13.8,-,N/A,,Partly Cloudy,230,2013-07-04 16:00:00
6:30 PM,78.8,66.2,65,30.12,6.2,SW,12.7,-,N/A,,Partly Cloudy,220,2013-07-04 16:30:00
7:00 PM,78.8,68.0,69,30.12,6.2,SW,12.7,-,N/A,,Partly Cloudy,230,2013-07-04 17:00:00
7:30 PM,78.8,68.0,69,30.12,6.2,SW,13.8,-,N/A,,Partly Cloudy,220,2013-07-04 17:30:00
8:00 PM,78,67,61,30.13,19,SW,15.0,,,,Scattered Clouds,220,2013-07-04 18:00:00
8:00 PM,77.0,68.0,74,30.12,6.2,SW,12.7,-,N/A,,Partly Cloudy,230,2013-07-04 18:00:00
8:30 PM,77.0,68.0,74,30.12,6.2,SW,11.5,-,N/A,,Partly Cloudy,220,2013-07-04 18:30:00
9:00 PM,75.2,68.0,78,30.15,6.2,SW,10.4,-,N/A,,Partly Cloudy,220,2013-07-04 19:00:00
9:30 PM,75.2,68.0,78,30.15,6.2,SSW,4.6,-,N/A,,Partly Cloudy,210,2013-07-04 19:30:00
10:00 PM,75.2,68.0,78,30.15,6.2,Variable,2.3,-,N/A,,Partly Cloudy,0,2013-07-04 20:00:00
10:30 PM,75.2,68.0,78,30.15,6.2,South,1.2,-,N/A,,Partly Cloudy,190,2013-07-04 20:30:00
11:00 PM,75.2,68.0,78,30.18,6.2,Calm,Calm,-,N/A,,Partly Cloudy,0,2013-07-04 21:00:00
11:30 PM,71.6,68.0,88,30.18,6.2,East,1.2,-,N/A,,Partly Cloudy,100,2013-07-04 21:30:00